Flag for American Samoa Weather past 2 weeks in Pago Pago, American Samoa

Now
80 °F

Sprinkles. Cloudy.


Feels Like: 85 °F
Forecast: 78 / 85 °F
Wind: 15 mph from East

Location: Pago Pago / Int. Airp.

Current Time: Dec 19, 2014 at 10:49:02 AM

Latest Report: Dec 19, 2014 at 9:50 AM


Visibility: 10 mi

Pressure: 29.75 "Hg

Humidity: 91%

Dew point: 77 °F

Location of Pago PagoLocation

Historic Weather in Pago Pago — Graph

°F

Pago Pago temperature yesterday

Maximum temperature yesterday: 84 °F (at 12:50 PM)
Minimum temperature yesterday: 77 °F (at 11:50 PM)
Average temperature yesterday: 81 °F

Past Weeks' High & Low Weather Summary

 TemperatureHumidityPressure
High87 °F (Dec 15, 12:50 PM)95% (Dec 5, 3:50 AM)29.91 "Hg (Dec 5, 3:50 AM)
Low75 °F (Dec 19, 3:59 AM)67% (Dec 15, 9:50 AM)29.70 "Hg (Dec 18, 4:56 PM)
Average82 °F83%29.81 "Hg
* Reported Dec 4 10:54 AM — Dec 19 8:57 AM, Pago Pago, Weather by CustomWeather, © 2014

Note: Actual official high and low records may vary slightly from our data, if they occured in-between our weather recording intervals... More about our weather records

Advertising

Pago Pago weather history for previous 24 hours

 ConditionsComfort  
Time TempWeatherWind HumidityBarometerVisibility
8:57 AM
Dec 19
80 °FSprinkles. Cloudy.13 mph91%29.75 "Hg7 mi
7:51 AM79 °FSprinkles. Cloudy.5 mph93%29.75 "Hg7 mi
6:51 AM78 °FSprinkles. Cloudy.8 mph94%29.75 "Hg7 mi
5:50 AM78 °FSprinkles. Cloudy.13 mph95%29.75 "Hg3 mi
4:50 AM76 °FSprinkles. Overcast.No wind95%29.72 "Hg3 mi
3:59 AM75 °FSprinkles. Overcast.3 mph94%29.72 "Hg3 mi
2:54 AM76 °FSprinkles. Overcast.3 mph90%29.70 "Hg3 mi
1:50 AM76 °FRain showers. Mostly cloudy.9 mph95%29.75 "Hg1 mi
12:50 AM78 °FSprinkles. Mostly cloudy.6 mph93%29.75 "Hg3 mi
11:50 PM
Dec 18
77 °FSprinkles. Overcast.17 mph94%29.78 "Hg10 mi
10:50 PM80 °FOvercast.3 mph90%29.78 "Hg10 mi
9:53 PM80 °FOvercast.15 mph89%29.78 "Hg10 mi
8:55 PM80 °FOvercast.15 mph91%29.78 "Hg10 mi
7:53 PM82 °FOvercast.15 mph88%29.75 "Hg10 mi
6:52 PM82 °FOvercast.16 mph88%29.73 "Hg10 mi
5:53 PM82 °FCloudy.18 mph89%29.71 "Hg10 mi
4:56 PM83 °FSprinkles. Cloudy.22 mph85%29.70 "Hg6 mi
3:51 PM82 °FSprinkles. Cloudy.17 mph88%29.70 "Hg6 mi
2:51 PM83 °FCloudy.18 mph87%29.70 "Hg5 mi
12:50 PM84 °FCloudy.17 mph84%29.73 "Hg11 mi
11:51 AM80 °FRain showers. Cloudy.21 mph92%29.75 "Hg8 mi
10:50 AM79 °FRain showers. Cloudy.21 mph93%29.78 "Hg4 mi
Weather by CustomWeather, © 2014

See weather overviewHow to use our weather pages